[[{"header":{"parameterUnit":"m.s-1","parameterCategory":1,"la1":30.2991,"la2":30.254,"lo1":-89.0895,"lo2":-89.0444,"dy":0.0017,"dx":0.0017,"nx":28,"ny":28,"refTime":"2023-09-18T21:00:00:Z","depth":0,"parameterNumber":2,"parameterNumberName":"U-component_of_WINDS"},"data":[0,0,0,0,0,0,0,0,0,0,0,0,0,0,0,0,0,0,0,0,0,0,0,0,0,0,0,0,0,0,0,0,0,0,0,0,0,0,0,0,0,0,0,0,0,0,0,0,0,0,0,0,0,0,0,0,0,0,-3.6792,-3.6794,0,-3.6916,-3.6917,-3.6918,-3.6882,-3.6879,-3.6877,-3.6874,-3.7003,-3.7008,-3.7014,0,0,0,0,0,0,0,0,0,0,0,0,0,-3.6527,-3.6532,-3.6792,-3.6794,-3.6795,-3.6915,-3.6917,-3.6919,-3.6882,-3.6879,-3.6876,-3.6873,-3.7001,-3.7008,-3.7015,0,0,0,0,0,0,0,0,0,0,0,0,0,-3.6645,-3.6533,-3.6792,-3.6792,-3.6793,-3.6915,-3.6917,-3.6919,-3.6883,-3.6879,-3.6875,-3.6872,-3.6999,-3.7007,-3.7016,-3.7147,0,0,-3.7042,-3.7046,0,0,0,0,0,0,0,0,-3.6638,-3.6655,-3.679,-3.6792,-3.6793,-3.6879,-3.687,-3.6996,-3.6884,-3.6849,-3.6874,-3.687,-3.6965,-3.6976,-3.7008,-3.7153,-3.7158,-3.7043,-3.7048,-3.7052,-3.7055,0,0,0,0,0,0,0,-3.663,-3.6649,-3.6841,-3.6792,-3.6794,-3.6786,-3.6798,-3.6894,-3.6927,-3.6852,-3.6849,-3.6864,-3.6965,-3.7,-3.7011,-3.716,-3.7043,-3.7051,-3.7056,-3.7059,-3.7417,-3.7421,0,0,0,0,0,0,-3.6621,-3.6643,-3.6837,-3.6845,-3.6705,-3.6793,-3.6808,-3.6856,-3.6926,-3.6933,-3.6867,-3.6862,-3.6987,-3.7001,-3.7015,-3.7171,-3.7052,-3.706,-3.7065,-3.7412,-3.7417,-3.7422,0,0,0,0,0,0,-3.6615,-3.6638,-3.6832,-3.6743,-3.6767,-3.6802,-3.6856,-3.686,-3.6894,-3.6938,-3.6944,-3.6896,-3.6984,-3.7003,-3.7114,-3.7175,-3.7064,-3.7072,-3.7407,-3.7414,-3.742,-3.7485,0,0,0,0,0,0,-3.6608,-3.6637,-3.6686,-3.6745,-3.6772,-3.6928,-3.686,-3.6865,-3.6909,-3.6903,-3.6966,-3.6973,-3.6982,-3.7101,-3.7122,-3.7185,-3.7079,-3.7402,-3.741,-3.7418,-3.7478,-3.7493,-3.7506,0,0,0,0,0,-3.6598,-3.6701,-3.6689,-3.6713,-3.6835,-3.6932,-3.6948,-3.6956,-3.6914,-3.6965,-3.6992,-3.6971,-3.7165,-3.7112,-3.7136,-3.7203,-3.7398,-3.7408,-3.7417,-3.7471,-3.749,-3.7506,0,0,0,0,0,0,-3.665,-3.6709,-3.6696,-3.6821,-3.6871,-3.6926,-3.6989,-3.6976,-3.704,-3.7032,-3.704,-3.7054,-3.7167,-3.7197,-3.7137,-3.7332,-3.7276,-3.729,-3.7309,-3.7327,-3.7341,-3.7331,-3.7086,0,0,0,0,0,-3.6676,-3.6749,-3.6797,-3.6902,-3.6928,-3.6954,-3.6997,-3.6999,-3.7052,-3.7073,-3.7109,-3.7163,-3.7235,-3.7283,-3.7353,-3.7482,-3.7495,-3.754,-3.7554,-3.7566,-3.7578,-3.7647,-3.7667,-3.7453,-3.7453,-3.7453,0,0,-3.6731,-3.6771,-3.6817,-3.6913,-3.6953,-3.7029,-3.6973,-3.7056,-3.7112,-3.7086,-3.7192,-3.7221,-3.7281,-3.7401,-3.7456,-3.7429,-3.764,-3.7578,-3.7587,-3.7593,-3.7659,-3.7679,-3.7697,-3.746,-3.7459,-3.7458,0,0,-3.6868,-3.6907,-3.6997,-3.7038,-3.7098,-3.7115,-3.7137,-3.7193,-3.721,-3.7316,-3.7298,-3.7366,-3.7491,-3.7534,-3.7572,-3.7725,-3.7707,-3.7747,-3.7821,-3.7889,-3.7905,-3.792,-3.7973,-3.7992,-3.776,-3.776,-3.776,0,-3.6928,-3.704,-3.7046,-3.713,-3.7172,-3.7152,-3.7243,-3.7283,-3.7363,-3.7393,-3.7361,-3.7517,-3.7556,-3.7685,-3.7722,-3.7755,-3.7779,-3.7739,-3.7902,-3.7917,-3.7931,-3.7982,-3.8002,-3.7764,-3.7764,-3.7763,-3.7763,0,-3.711,-3.7189,-3.7255,-3.7331,-3.7381,-3.7469,-3.7488,-3.7538,-3.7535,-3.7555,-3.7663,-3.7709,-3.7787,-3.7818,-3.7817,-3.7947,-3.7928,-3.79,-3.7843,-3.7956,-3.8003,-3.8023,-3.777,-3.7769,-3.7768,-3.7767,0,0,-3.7283,-3.736,-3.7385,-3.7418,-3.7482,-3.7543,-3.763,-3.7705,-3.7747,-3.7803,-3.7875,-3.7981,-3.7955,-3.7998,-3.8002,-3.8061,-3.8177,-3.8025,-3.8027,-3.805,-3.8321,-3.8341,-3.8363,-3.8166,-3.817,-3.8173,-3.8315,0,-3.7424,-3.7575,-3.7582,-3.7719,-3.7791,-3.7772,-3.7847,-3.7895,-3.7916,-3.798,-3.8004,-3.8079,-3.8039,-3.8065,-3.8123,-3.815,-3.8231,-3.8141,-3.8233,-3.8236,-3.8216,-3.8388,-3.8409,-3.8541,-3.8334,-3.8337,-3.834,0,-3.7609,-3.7669,-3.7812,-3.7864,-3.7895,-3.7962,-3.803,-3.8092,-3.8146,-3.8157,-3.8205,-3.82,-3.8289,-3.823,-3.8352,-3.829,-3.8328,-3.8348,-3.8353,-3.836,-3.8293,-3.8398,-3.8584,-3.8603,-3.8369,-3.8367,-3.8365,0,-3.7718,-3.7835,-3.7935,-3.7965,-3.8029,-3.8076,-3.8106,-3.8156,-3.8199,-3.826,-3.8288,-3.8359,-3.8397,-3.8452,-3.8466,-3.8422,-3.8587,-3.8529,-3.8598,-3.8598,-3.8632,-3.863,-3.8825,-3.8661,-3.866,-3.866,-3.8659,0,-3.7874,-3.7962,-3.7985,-3.8046,-3.8144,-3.8152,-3.8249,-3.8276,-3.832,-3.8386,-3.8376,-3.8439,-3.8454,-3.852,-3.8532,-3.863,-3.8648,-3.8659,-3.8661,-3.8659,-3.8658,-3.8683,-3.8674,-3.8665,-3.8664,-3.8663,-3.8662,0,-3.8012,-3.8031,-3.8139,-3.819,-3.8205,-3.8275,-3.8319,-3.8378,-3.8398,-3.8482,-3.8502,-3.8533,-3.861,-3.863,-3.8723,-3.873,-3.8846,-3.884,-3.8827,-3.8826,-3.8893,-3.8886,-3.911,-3.9139,-3.8957,-3.8959,-3.896,0,-3.8109,-3.8176,-3.8234,-3.8277,-3.8307,-3.8378,-3.8421,-3.8432,-3.8479,-3.8544,-3.8595,-3.8671,-3.8731,-3.8855,-3.8886,-3.8957,-3.8952,-3.9025,-3.8962,-3.8958,-3.8951,-3.8946,-3.8952,-3.9037,-3.9039,-3.904,-3.9042,0,-3.8279,-3.8285,-3.8348,-3.8414,-3.8467,-3.852,-3.8571,-3.8608,-3.8625,-3.8678,-3.8756,-3.8803,-3.8896,-3.8971,-3.9042,-3.9072,-3.906,-3.9062,-3.9081,-3.9079,-3.9068,-3.9073,-3.8858,-3.9056,-3.9055,-3.9054,-3.9053,-3.9052,-3.8399,-3.8456,-3.8505,-3.8576,-3.8615,-3.8662,-3.872,-3.8746,-3.881,-3.8886,-3.8889,-3.8973,-3.9024,-3.9118,-3.9152,-3.9219,-3.9196,-3.9225,-3.9232,-3.9238,-3.9243,-3.9058,-3.9232,-3.9232,-3.9231,-3.9231,-3.9231,0,-3.8566,-3.8596,-3.8661,-3.8731,-3.8787,-3.877,-3.8825,-3.8873,-3.8946,-3.8994,-3.9054,-3.9142,-3.9215,-3.9251,-3.9323,-3.9369,-3.9365,-3.9387,-3.9383,-3.939,-3.926,-3.9235,-3.9389,-3.9389,-3.9389,-3.9389,-3.9389,-3.9389,-3.866,-3.8756,-3.8767,-3.8882,-3.8912,-3.8993,-3.9026,-3.907,-3.9108,-3.9207,-3.9266,-3.9289,-3.9333,-3.9407,-3.9472,-3.9481,-3.9508,-3.9533,-3.9539,-3.9416,-3.94,-3.9384,-3.9361,-3.9539,-3.9539,-3.9663,-3.9664,-3.9665]},{"header":{"parameterUnit":"m.s-1","parameterCategory":1,"la1":30.2991,"la2":30.254,"lo1":-89.0895,"lo2":-89.0444,"dy":0.0017,"dx":0.0017,"nx":28,"ny":28,"refTime":"2023-09-18T21:00:00:Z","depth":0,"parameterNumber":3,"parameterNumberName":"V-component_of_WINDS"},"data":[0,0,0,0,0,0,0,0,0,0,0,0,0,0,0,0,0,0,0,0,0,0,0,0,0,0,0,0,0,0,0,0,0,0,0,0,0,0,0,0,0,0,0,0,0,0,0,0,0,0,0,0,0,0,0,0,0,0,2.04,2.0401,0,2.0486,2.0487,2.0488,2.0497,2.0497,2.0496,2.0495,2.0581,2.0584,2.0587,0,0,0,0,0,0,0,0,0,0,0,0,0,2.0241,2.0244,2.04,2.0401,2.0402,2.0486,2.0487,2.0489,2.0498,2.0497,2.0495,2.0494,2.058,2.0584,2.0588,0,0,0,0,0,0,0,0,0,0,0,0,0,2.0317,2.0245,2.04,2.0417,2.0419,2.0486,2.0487,2.0489,2.0498,2.0497,2.0495,2.0494,2.0579,2.0584,2.0588,2.0643,0,0,2.0602,2.0605,0,0,0,0,0,0,0,0,2.0313,2.0323,2.0413,2.0416,2.0418,2.048,2.0463,2.0541,2.0498,2.0468,2.0495,2.0493,2.0548,2.0556,2.0575,2.0647,2.0651,2.0603,2.0606,2.0608,2.0609,0,0,0,0,0,0,0,2.0307,2.0319,2.0434,2.0414,2.0418,2.042,2.0429,2.0478,2.0514,2.047,2.0471,2.0482,2.055,2.057,2.0577,2.0652,2.0603,2.0607,2.061,2.0612,2.0774,2.0776,0,0,0,0,0,0,2.0299,2.0315,2.0431,2.0437,2.0361,2.0424,2.0434,2.0461,2.0514,2.0521,2.0483,2.0482,2.0563,2.0571,2.058,2.0647,2.0608,2.0612,2.0615,2.0773,2.0775,2.0776,0,0,0,0,0,0,2.0296,2.031,2.0428,2.0376,2.0391,2.0428,2.0458,2.0464,2.0484,2.0523,2.0529,2.0497,2.0562,2.0573,2.0628,2.065,2.0614,2.0618,2.0771,2.0774,2.0776,2.0783,0,0,0,0,0,0,2.0291,2.0308,2.033,2.0376,2.0394,2.0475,2.046,2.0466,2.0493,2.0492,2.0538,2.0544,2.0562,2.0621,2.0632,2.0656,2.0622,2.0769,2.0772,2.0775,2.0781,2.0785,2.0789,0,0,0,0,0,2.0285,2.0328,2.0331,2.0345,2.0422,2.0476,2.0486,2.0505,2.0494,2.0516,2.0541,2.0543,2.0646,2.0626,2.0639,2.0665,2.0768,2.0771,2.0775,2.0779,2.0784,2.0789,0,0,0,0,0,0,2.0282,2.0334,2.0338,2.0397,2.0432,2.0477,2.0505,2.0511,2.0549,2.0547,2.0569,2.0579,2.0633,2.0655,2.0631,2.0721,2.0706,2.0712,2.0704,2.071,2.0714,2.0707,2.0626,0,0,0,0,0,2.0289,2.0329,2.0372,2.042,2.0437,2.0468,2.0493,2.0505,2.0542,2.0556,2.0585,2.062,2.0661,2.0687,2.0726,2.0784,2.0794,2.0809,2.0813,2.0816,2.082,2.0852,2.0859,2.0788,2.0788,2.0788,0,0,2.0302,2.0335,2.0359,2.042,2.0449,2.0489,2.0481,2.0524,2.0554,2.0563,2.0616,2.0638,2.0679,2.0735,2.0762,2.0755,2.0843,2.082,2.0822,2.0825,2.0856,2.0863,2.0869,2.079,2.079,2.0789,0,0,2.0346,2.0376,2.0419,2.0448,2.0492,2.0512,2.0522,2.0567,2.0583,2.0637,2.0644,2.068,2.0749,2.0778,2.0801,2.0858,2.086,2.087,2.089,2.0921,2.0927,2.0932,2.0951,2.0957,2.0875,2.0875,2.0875,0,2.0357,2.0418,2.044,2.0483,2.051,2.0521,2.0564,2.0591,2.0645,2.0662,2.0655,2.0742,2.077,2.0833,2.0847,2.0866,2.0878,2.0864,2.0924,2.093,2.0935,2.0953,2.096,2.0875,2.0875,2.0875,2.0875,0,2.0429,2.0472,2.0501,2.0553,2.0583,2.0626,2.0654,2.0682,2.0692,2.0713,2.0767,2.0802,2.0848,2.0864,2.0874,2.0929,2.0923,2.092,2.0905,2.0942,2.0959,2.0967,2.0876,2.0876,2.0876,2.0876,0,0,2.0472,2.0537,2.0547,2.0571,2.062,2.0653,2.0697,2.0743,2.0766,2.0803,2.0839,2.0898,2.0895,2.0922,2.0936,2.0963,2.1004,2.0956,2.0957,2.0963,2.1065,2.1066,2.1074,2.1007,2.1009,2.101,2.1061,0,2.0521,2.0599,2.062,2.0686,2.0725,2.0737,2.0775,2.0809,2.083,2.0866,2.089,2.093,2.0924,2.094,2.0968,2.0993,2.1025,2.099,2.104,2.1041,2.1028,2.1084,2.1085,2.1132,2.1069,2.107,2.1071,0,2.0589,2.0628,2.0697,2.0742,2.0759,2.0793,2.0836,2.0871,2.091,2.0924,2.0954,2.0965,2.101,2.0994,2.1056,2.1032,2.1054,2.107,2.1072,2.1076,2.1057,2.1088,2.1148,2.1154,2.1082,2.1081,2.108,0,2.0612,2.0682,2.0733,2.0753,2.0806,2.0829,2.0853,2.089,2.0917,2.0955,2.0972,2.1015,2.1038,2.1071,2.1093,2.108,2.1153,2.1139,2.1165,2.1164,2.1178,2.1177,2.1241,2.1195,2.1195,2.1195,2.1195,0,2.0664,2.0705,2.0744,2.0775,2.0822,2.0846,2.0892,2.0916,2.0949,2.0985,2.0998,2.1031,2.1059,2.1095,2.1113,2.1161,2.1172,2.1183,2.1187,2.1181,2.118,2.1195,2.1192,2.1197,2.1196,2.1196,2.1196,0,2.0697,2.0724,2.078,2.0826,2.0839,2.0872,2.0911,2.0941,2.0963,2.1008,2.102,2.1054,2.1098,2.1124,2.1179,2.1191,2.1244,2.1247,2.1231,2.1232,2.1256,2.1253,2.1331,2.1342,2.129,2.129,2.1291,0,2.0727,2.076,2.081,2.0835,2.0858,2.0898,2.0925,2.0951,2.0978,2.1025,2.105,2.1095,2.1131,2.1201,2.123,2.1272,2.1276,2.13,2.1282,2.1275,2.1275,2.1272,2.1275,2.1303,2.1303,2.1304,2.1304,0,2.0778,2.079,2.0829,2.0873,2.0905,2.0941,2.0976,2.0996,2.1027,2.1057,2.1102,2.1131,2.1188,2.1232,2.1276,2.13,2.1307,2.131,2.1318,2.1311,2.13,2.1305,2.1238,2.1307,2.1307,2.1307,2.1307,2.1307,2.081,2.084,2.0879,2.0922,2.0951,2.0984,2.1015,2.1041,2.108,2.1128,2.1141,2.1188,2.1226,2.1287,2.1311,2.1348,2.1344,2.1356,2.1359,2.1361,2.1361,2.1295,2.1357,2.1357,2.1357,2.1357,2.1357,0,2.0861,2.0887,2.0926,2.0976,2.1009,2.1014,2.1054,2.1081,2.1123,2.1158,2.1194,2.1246,2.1289,2.1322,2.1366,2.1389,2.1393,2.14,2.1397,2.1402,2.1363,2.1351,2.1395,2.1395,2.1395,2.1395,2.1395,2.1395,2.0891,2.0941,2.0957,2.1022,2.1048,2.1094,2.1116,2.1147,2.1175,2.1232,2.1268,2.129,2.1324,2.1371,2.141,2.1419,2.1434,2.1439,2.1448,2.141,2.1405,2.1401,2.139,2.1443,2.1443,2.1485,2.1485,2.1486]}]]